Location: Longueuil
(45.5369°N, 73.5107°W)
Time: 00:50:49
(UTC-05:00)

ISS - Visible Passes

Search period start: 08 December 2023 00:00
Search period end: 18 December 2023 00:00
Orbit: 415 x 417 km, 51.6° (Epoch: 08 December)

Date Brightness Start Highest point End Pass type
(mag) Time Alt. Az. Time Alt. Az. Time Alt. Az.
09 Dec 0.2 16:54:42 10° WSW 16:55:12 10° SW 16:55:42 10° SW visible
14 Dec 0.0 06:23:48 10° SE 06:24:38 11° SE 06:25:28 10° ESE visible
16 Dec -1.4 06:20:32 10° SSW 06:23:22 26° SE 06:26:13 10° E visible
17 Dec -0.8 05:32:33 10° S 05:34:42 16° SE 05:36:52 10° E visible
